MDT,Max TemperatureF,Mean TemperatureF,Min TemperatureF,Max Dew PointF,MeanDew PointF,Min DewpointF,Max Humidity, Mean Humidity, Min Humidity, Max Sea Level PressureIn, Mean Sea Level PressureIn, Min Sea Level PressureIn, Max VisibilityMiles, Mean VisibilityMiles, Min VisibilityMiles, Max Wind SpeedMPH, Mean Wind SpeedMPH, Max Gust SpeedMPH,PrecipitationIn, CloudCover, Events, WindDirDegrees
2013-3-1,48,40,31,30,28,27,85,64,42,30.41,30.36,30.28,10,10,10,13,4,16,0.00,6,,113
2013-3-2,44,36,27,31,28,25,85,71,57,30.39,30.21,29.93,10,10,10,9,4,10,0.00,2,,170
2013-3-3,45,34,23,32,24,9,82,57,32,30.10,29.81,29.64,10,7,1,33,11,41,0.02,7,Rain-Snow,348
2013-3-4,25,18,10,14,9,5,76,63,50,30.43,30.33,30.15,10,10,10,15,7,20,0.00,4,,337
2013-3-5,33,18,3,18,10,0,83,63,43,30.38,30.23,29.98,10,10,10,8,2,9,0.00,0,,137
2013-3-6,40,27,14,32,25,11,92,76,59,30.05,29.83,29.70,10,9,1,20,4,30,0.02,4,Rain-Snow,103
2013-3-7,42,33,23,30,24,17,89,67,44,30.09,29.98,29.82,10,8,0,28,5,33,T,3,Fog-Snow,122
2013-3-8,41,31,20,26,22,16,81,68,54,30.05,30.00,29.93,10,10,10,9,3,9,0.00,4,,135
2013-3-9,39,27,14,23,18,10,88,68,48,30.38,30.25,30.04,10,10,10,12,5,14,0.00,1,,152
2013-3-10,46,31,16,28,20,11,82,55,28,30.44,30.28,30.12,10,10,10,9,3,14,0.00,3,,136
2013-3-11,44,33,22,27,21,15,78,56,33,30.32,30.16,30.08,10,10,10,29,10,38,0.00,1,,304
2013-3-12,50,34,18,29,21,13,84,62,39,30.34,30.23,30.11,10,10,10,17,3,21,0.00,6,,150
2013-3-13,61,48,35,31,27,23,64,44,23,30.18,30.15,30.10,10,10,10,15,4,18,0.00,5,,194
2013-3-14,63,46,28,35,29,24,85,55,25,30.25,30.14,29.98,10,10,10,12,5,14,0.00,0,,129
2013-3-15,60,47,34,29,26,20,75,48,21,30.04,29.99,29.93,10,10,10,26,8,32,0.00,3,,316
2013-3-16,54,41,28,30,23,15,85,54,22,30.03,29.88,29.57,10,10,10,18,6,24,0.00,4,,202
2013-3-17,45,35,25,31,22,8,92,67,41,29.98,29.68,29.53,10,7,0,31,13,39,0.10,7,Fog-Snow,303
2013-3-18,41,29,17,18,11,7,68,48,27,30.05,29.99,29.91,10,10,10,29,11,36,T,5,,256
2013-3-19,43,32,20,21,13,5,81,51,20,30.33,30.23,30.09,10,10,9,16,6,20,T,3,Snow,179
2013-3-20,58,42,26,31,24,14,89,59,28,30.12,29.79,29.56,10,10,3,32,7,39,0.02,5,Snow,183
2013-3-21,41,29,17,32,18,5,89,56,23,29.99,29.81,29.65,10,9,2,30,13,36,0.01,6,Snow,266
2013-3-22,34,26,17,19,13,8,74,57,39,30.21,30.03,29.92,10,8,1,16,7,18,T,6,Snow,121
2013-3-23,32,23,14,15,9,2,80,56,31,30.38,30.27,30.08,10,10,8,15,4,17,T,5,Snow,259
2013-3-24,35,26,16,16,10,1,80,53,25,30.43,30.34,30.22,10,10,5,10,4,14,T,5,Snow,179
2013-3-25,47,29,10,15,7,2,73,44,15,30.33,30.21,30.08,10,10,10,10,5,16,0.00,0,,155
2013-3-26,53,39,24,22,17,13,75,49,22,30.06,30.00,29.93,10,10,10,15,4,25,0.00,4,,144
2013-3-27,57,39,20,29,21,16,84,54,24,30.10,30.02,29.95,10,10,10,22,5,30,0.00,2,,149
2013-3-28,61,43,25,33,25,20,84,53,21,30.11,30.05,30.01,10,10,10,16,5,28,0.00,4,,179
2013-3-29,55,44,33,39,33,27,79,60,41,30.18,30.12,30.04,10,10,7,22,6,28,0.03,6,Rain,171
2013-3-30,57,43,29,36,27,19,92,58,24,30.30,30.21,30.13,10,10,10,13,5,17,0.00,4,,134
2013-3-31,61,42,22,27,23,21,81,53,24,30.16,30.09,30.03,10,10,10,14,4,20,0.00,0,,165